EDT,Max TemperatureF,Mean TemperatureF,Min TemperatureF,Max Dew PointF,MeanDew PointF,Min DewpointF,Max Humidity, Mean Humidity, Min Humidity, Max Sea Level PressureIn, Mean Sea Level PressureIn, Min Sea Level PressureIn, Max VisibilityMiles, Mean VisibilityMiles, Min VisibilityMiles, Max Wind SpeedMPH, Mean Wind SpeedMPH, Max Gust SpeedMPH,PrecipitationIn, CloudCover, Events, WindDirDegrees
2013-7-1,81,71,60,51,47,41,64,47,30,30.10,30.05,30.00,10,10,10,21,8,32,0.00,0,,54
2013-7-2,68,65,62,60,55,39,90,64,37,30.11,30.08,30.06,10,8,1,9,5,30,0.55,8,Rain,37
2013-7-3,79,70,60,67,61,53,87,76,64,30.09,30.06,30.03,10,9,5,13,5,17,T,5,,106
2013-7-4,80,71,62,65,61,55,93,68,42,30.13,30.10,30.07,10,5,0,12,5,14,0.00,4,Fog,225
2013-7-5,85,75,64,65,62,58,93,69,45,30.12,30.08,30.05,10,7,2,10,3,16,0.00,0,,228
2013-7-6,87,78,68,68,66,62,87,73,58,30.09,30.05,29.99,10,9,5,12,3,24,0.00,1,,235
2013-7-7,86,79,72,70,68,66,90,74,58,30.04,30.00,29.96,10,9,4,15,7,31,0.00,4,,216
2013-7-8,81,76,71,72,70,67,93,80,67,30.03,29.98,29.95,10,9,2,22,9,29,0.03,5,Rain,215
2013-7-9,89,77,65,76,68,63,93,77,61,30.01,29.96,29.86,10,3,0,16,5,22,0.19,4,Fog-Rain-Thunderstorm,221
2013-7-10,80,71,62,74,66,54,88,67,45,29.99,29.88,29.82,10,9,3,21,9,32,0.00,2,,291
2013-7-11,80,70,59,62,57,54,90,66,42,30.09,30.06,30.00,10,9,1,14,5,20,0.00,0,,309
2013-7-12,86,73,59,61,57,53,84,59,34,30.16,30.13,30.08,10,10,10,9,3,28,0.00,0,,50
2013-7-13,90,74,58,63,58,53,87,59,31,30.19,30.17,30.14,10,10,7,14,4,21,0.00,0,,105
2013-7-14,93,79,65,68,65,60,81,60,39,30.25,30.22,30.19,10,10,10,10,4,17,0.00,0,,114
2013-7-15,96,84,71,73,70,66,84,67,49,30.29,30.26,30.23,10,9,5,12,3,15,0.00,0,,249
2013-7-16,92,84,75,74,72,68,87,67,47,30.32,30.28,30.25,10,10,8,13,5,17,0.00,1,,225
2013-7-17,92,84,76,75,73,71,82,69,56,30.30,30.25,30.17,10,10,8,12,6,23,0.00,0,,257
2013-7-18,95,87,78,75,72,70,85,66,46,30.18,30.07,29.94,10,10,10,16,8,23,0.00,0,,242
2013-7-19,97,89,81,74,72,69,74,58,42,29.94,29.81,29.73,10,10,10,30,17,40,0.00,2,Thunderstorm,235
2013-7-20,88,79,70,71,62,54,82,57,32,29.94,29.86,29.75,10,10,10,15,5,20,0.00,1,,317
2013-7-21,88,75,62,66,60,49,69,56,42,30.01,29.97,29.90,10,8,1,17,5,23,0.86,4,Rain-Thunderstorm,81
2013-7-22,86,77,67,69,66,63,87,69,51,29.90,29.83,29.75,10,10,10,12,7,20,0.00,1,,173
2013-7-23,78,69,59,71,61,48,84,67,49,29.96,29.79,29.66,10,10,10,20,9,31,0.01,2,Rain,292
2013-7-24,76,65,53,51,48,46,77,58,38,30.07,30.04,29.98,10,10,10,14,5,22,0.00,0,,345
2013-7-25,78,65,52,56,53,48,89,65,40,30.12,30.09,30.06,10,10,10,13,4,17,0.00,0,,234
2013-7-26,78,69,60,64,59,49,87,69,50,30.05,29.97,29.88,10,8,1,18,7,24,0.34,6,Rain,179
2013-7-27,70,64,57,63,58,47,93,76,58,29.89,29.86,29.84,10,8,0,17,7,28,0.00,7,Fog,293
2013-7-28,67,62,57,55,53,51,86,75,63,29.97,29.88,29.81,10,8,2,16,6,21,0.80,7,Rain,268
2013-7-29,69,61,53,57,55,52,90,75,59,30.21,30.08,29.98,10,9,4,13,4,18,0.06,6,Rain,304
2013-7-30,80,66,51,61,52,48,93,69,45,30.24,30.19,30.11,10,6,0,10,2,44,T,1,Fog,115
2013-7-31,73,69,64,66,63,61,87,80,73,30.10,30.01,29.94,10,6,0,10,3,,0.19,8,Fog-Rain,75